Погода в Трубчевске

Погода в Трубчевске : погода сейчас, прогноз погоды и архив. Всё, что Вы хотите узнать о погоде в Трубчевске!

Хотите узнать прогноз погоды в Трубчевске? Тогда Вам сюда: Погода в Трубчевске

Поиск расширенной информации на нашем сайте:

Другие новости

Новости СМИ2

Главная страница сайта

Новости сайта

03.07.2017

Напоминаем, что на нашем специализированном сайте Метеоцентр.Азия вы можете получить высокодетализированные автоматические прогнозы погоды по пунктам России, СНГ и мира в авиационном формате (включающие направление и скорость ветра, видимость, явления погоды, количество и форму облачности, нижнюю и верхнюю границу облачности).


Погода в Трубчевске - сегодня

Время (UTC), дата Ветер
(°,м/с) 
Видим.   Явления Облачность Т
(°С)
Тd
(°С)
f(%) Тe
(°С)
Pmin
(гПа)
dP
(гПа)
Po
(мм)
O2
(г/м3)
Тmin Tmax R s Состояние
почвы
12 20.10.17 040 (СВ) 28000 м    3/0 верхняя 
[Ci fib]
+10.2 -0.3 48 +10  1022.6  -1.1  751  292           
15 20.10.17 360 (С) 16000 м    1/0 верхняя 
[Ci fib]
+5.2 +0.9 74 +6  1022.8  -0.2  751  297           
18 20.10.17 340 (С) 10 км    3/0 средняя 
[Ac trans]
+0.7 -1.6 85 +1  1023.6  0.4  751  302    +10.3       
21 20.10.17 010 (С) 7000 м  дымка  ясно 
+0.1 -1.3 90 +1  1023.4  -0.2  751  303           
00 21.10.17 тихо ()   6000 м  дымка  ясно 
-0.7 -1.6 94 -1  1022.8  -0.7  750  303           
03 21.10.17 тихо ()   6000 м  дымка  6/0 средняя 
[Ac trans]
-0.5 -1.4 94 -1  1022.3  -0.4  750  303  -2         
06 21.10.17 тихо ()   6000 м  дымка  6/0 средняя 
[Ac trans]
+0.7 -0.4 92 +1  1021.7  -0.5  749  301  -2         
09 21.10.17 030 (СВ) 12000 м    9/0 средняя 
[Ac trans]
+4.7 +1.7 81 +6  1021.3  749  297           
12 21.10.17 040 (СВ) 18000 м    9/0 средняя 
[Ac trans]
+6.6 +1.1 68 +8  1019.5  -1.7  748  294           
15 21.10.17 тихо ()   13000 м    9/0 средняя 
[Ac trans]
+4.8 +1.5 79 +5  1018.7  -0.8  748  296           
18 21.10.17 010 (С) 7000 м  дымка  6/0 средняя 
[Ac trans]
+3.2 +1.7 90 +4  1018.6  -0.3  747  297    +6.8       
21 21.10.17 020 (С) 6000 м  дымка  3/0 верхняя 
[Ci sp]
+0.3 -0.8 92 +1  1018.5  -0.4  747  301           
00 22.10.17 010 (С) 7000 м  дымка  ясно 
-1.7 -3.3 89 -1  1018.7  0.1  747  303           
03 22.10.17 020 (С) 7000 м  дымка  3/0 верхняя 
[Ci sp]
-2.5 -3.8 91 -2  1019.1  0.3  747  304  -2.7         
06 22.10.17 030 (СВ) 7000 м  дымка  ясно 
-0.5 -1.7 92 1020.4  1.4  748  302  -2.7         
09 22.10.17 030 (СВ) 22000 м    4/3 1000 м верхняя 
[Cu hum|Ci sp]
+3.3 -3.8 60 +2  1020.7  0.7  749  299           
12 22.10.17 030 (СВ) 25000 м    4/0 верхняя 
[Ci sp]
+3.8 -4.6 54 +3  1020.7  749  298           
15 22.10.17 030 (СВ) 20000 м    ясно 
+1.3 -4.6 65 +2  1020.7  -0.2  749  301           
18 22.10.17 тихо ()   9000 м  дымка  ясно 
-2.7 -4.7 86 -3  1021.7  0.6  749  305    +4.1       
21 22.10.17 190 (Ю) 7000 м  дымка  ясно 
-4.5 -5.8 91 -4  1022.1  0.2  749  308           
00 23.10.17 220 (ЮЗ) 6000 м  дымка  ясно 
-4.8 -5.8 93 -4  1022.4  0.3  750  308           
03 23.10.17 тихо ()   7000 м  дымка  6/0 средняя 
[Ac trans]
-4 -5.2 91 -4  1022.2  750  307  -5.1         
06 23.10.17 190 (Ю) 7000 м  дымка  8/0 средняя 
[Ac trans]
-2.6 -3.9 91 -2  1022.4  0.1  750  305  -5.1         
09 23.10.17 070 (В) 15000 м    4/0 средняя 
[Ac trans]
+1.8 -2.3 74 +3  1022.3  0.3  750  300           
12 23.10.17 140 (ЮВ) 24000 м    6/4 300 м кучево-дожд., средняя 
[Cb cap|Ac trans]
+3.5 -4.6 55 +4  1022.7  0.4  750  299           
Время (UTC), дата Ветер
(°,м/с) 
Видим.   Явления Облачность Т
(°С)
Тd
(°С)
f(%) Тe
(°С)
Pmin
(гПа)
dP
(гПа)
Po
(мм)
O2
(г/м3)
Тmin Tmax R s Состояние
почвы

Для получения пояснительной информации подведите курсор к названию столбца.

ПОГОДА в Трубчевске - архив

Всё, что Вы хотите узнать о погоде в Трубчевске - удобно и подробно!

Выберите нужную дату (начиная с 1 января 2015* года) и нажмите кнопку "Найти".
Будут отображены архивные сводки погоды по пункту Трубчевск, начиная с указанной даты.


Отображать данные в формате CSV (для использования в таблицах Excel)


Внимание! Наш архив погоды предназначен исключительно для личного некоммерческого использования в познавательных целях. Если Вам необходимы официальные справки о состоянии погоды (для производственных, юридических, коммерческих и т.п. целей), обращайтесь в органы Росгидромета.

*Примечание: данная дата относится к архиву по метеостанциям СССР (Россия, СНГ, Балтия).
Архив по метеостанциям Зарубежной Европы и Азии (кроме Китая) хранится 10 дней, по другим регионам земного шара (Китай, Африка, Америка, Австралия, Океания) - 1 день.

Трубчевск - район местоположения метеостанции


Название, широта, долгота, высота метеостанции:
Трубчевск 52.6°ш. 33.8°д. 178 м над ур. моря [Российская Федерация]

Дополнительная информация

В oтличие oт бoльшинства пoгoдных сайтoв мы публикуем пoдрoбную метеoинфoрмацию в детальнoм прoфессиoнальнoм фoрмате.

Характеристики температуры и влажнoсти вoздуха измеряются на высoте 2 м в тени вдали oт зданий и деревьев.
Скoрoсть ветра измеряется на высoте 10 м (на урoвне рoста челoвека скoрoсть ветра ниже в 1.5-2 раза). Если метеoстанция нахoдится в гoрoде или в лесу, тo скoрoсть ветра занижена на 2-4 м/с пo сравнению с oткрытым местoм. Скoрoсть ветра над акватoриями крупных рек и oзёр, а также на вершинах хoлмoв на 2-5 м/с выше, чем в oбычных услoвиях.
Атмoсфернoе давление в разных тoчках местнoсти мoжет значительнo oтличаться oт давления на метеoстанции, в зависимoсти oт услoвий рельефа (при пoдъёме на 10 м давление пoнижается примернo на 1 мм рт.ст.).